Home   Weather   Hiroshima   Past weeks

Flag for Japan Past Weather in Hiroshima, Japan — Yesterday and Last 2 Weeks

Now
34 °F

Passing clouds.


Feels Like: 28 °F
Forecast: 29 / 52 °F
Wind: 7 mph from Northwest

Location: Iwakuni Marine Corps Air Station

Current Time: Jan 18, 2017 at 6:27:35 am

Latest Report: Jan 18, 2017 at 4:55 am


Visibility: N/A

Pressure: 30.42 "Hg

Humidity: 79%

Dew Point: 28 °F

Location of HiroshimaLocation

Past Weather in Hiroshima — Graph

°F

Hiroshima Temperature Yesterday

Maximum temperature yesterday: 48 °F (at 12:55 pm)
Minimum temperature yesterday: 33 °F (at 5:55 am)
Average temperature yesterday: 41 °F

High & Low Weather Summary for the Past Weeks

 TemperatureHumidityPressure
High58 °F (Jan 3, 11:55 am)90% (Jan 8, 1:55 am)30.45 "Hg (Jan 8, 1:55 am)
Low30 °F (Jan 14, 11:55 pm)27% (Jan 11, 2:55 pm)29.73 "Hg (Jan 8, 2:55 pm)
Average43 °F58%30.09 "Hg
* Reported Jan 3 4:55 am — Jan 18 4:55 am, Hiroshima, Weather by CustomWeather, © 2017

Note: Actual official high and low records may vary slightly from our data, if they occured in-between our weather recording intervals... More about our weather records

Advertising

Hiroshima Weather History for the Previous 24 Hours

Scroll right to see more
 ConditionsComfort  
Time TempWeatherWind HumidityBarometerVisibility
4:55 am
Wed, Jan 18
34 °FPassing clouds.7 mph79%30.42 "HgN/A
3:55 am35 °FPassing clouds.8 mph75%30.42 "HgN/A
2:55 am35 °FPassing clouds.7 mph78%30.43 "HgN/A
1:55 am36 °FPassing clouds.8 mph75%30.44 "HgN/A
12:55 am37 °FPassing clouds.6 mph76%30.43 "HgN/A
11:55 pm
Tue, Jan 17
38 °FPassing clouds.9 mph73%30.44 "HgN/A
10:55 pm39 °FPassing clouds.7 mph70%30.44 "HgN/A
9:55 pm40 °FPassing clouds.7 mph68%30.44 "HgN/A
8:55 pm42 °FPassing clouds.6 mph62%30.43 "HgN/A
7:55 pm43 °FPartly cloudy.7 mph58%30.44 "HgN/A
6:55 pm44 °FPassing clouds.7 mph55%30.42 "HgN/A
5:55 pm46 °FPassing clouds.9 mph50%30.40 "HgN/A
4:55 pm47 °FPartly sunny.10 mph46%30.39 "HgN/A
3:55 pm48 °FMore clouds than sun.10 mph39%30.39 "HgN/A
2:55 pm48 °FMore clouds than sun.14 mph39%30.37 "HgN/A
1:55 pm48 °FOvercast.10 mph41%30.35 "HgN/A
12:55 pm48 °FPartly sunny.5 mph43%30.37 "HgN/A
11:55 am47 °FPartly sunny.6 mph48%30.40 "HgN/A
10:55 am45 °FPartly sunny.6 mph53%30.43 "HgN/A
9:55 am42 °FScattered clouds.3 mph60%30.45 "HgN/A
8:55 am37 °FScattered clouds.3 mph67%30.43 "HgN/A
7:55 am34 °FScattered clouds.8 mph73%30.41 "HgN/A
6:55 am33 °FPassing clouds.9 mph75%30.41 "HgN/A
Weather by CustomWeather, © 2017

See weather overviewHow to use our weather pages